Mobile Site You Are Here >  >  >  >  > Career Game Log

DaJuan Coleman Career Game Log

Position: Forward

Height: 6-9 ▪ Weight: 255

High School: Jamesville-DeWitt

School: Syracuse
Career: 37 G, 4.6 PPG, 4.0 RPG, 0.2 APG

32

Output includes all games from 2010-11 to 2014-15.

Game Log

Rk Season Date School Opponent Type GS MP FG FGA FG% 2P 2PA 2P% 3P 3PA 3P% FT FTA FT% ORB DRB TRB AST STL BLK TOV PF PTS
1 2012-13 2012-11-11 Syracuse N San Diego State REG W 1 9 1 3 .333 1 3 .333 0 0 0 0 2 0 2 0 0 0 2 2 2
2 2012-13 2012-11-18 Syracuse Wagner REG W 1 19 1 4 .250 1 4 .250 0 0 1 2 .500 1 6 7 0 1 0 5 1 3
3 2012-13 2012-11-21 Syracuse Princeton REG W 1 16 3 5 .600 3 5 .600 0 0 1 5 .200 2 4 6 1 3 1 0 1 7
4 2012-13 2012-11-25 Syracuse Colgate REG W 1 18 4 6 .667 4 6 .667 0 0 4 6 .667 1 6 7 0 0 1 1 1 12
5 2012-13 2012-11-30 Syracuse @ Arkansas REG W 1 12 1 5 .200 1 5 .200 0 0 1 3 .333 2 3 5 0 0 0 0 2 3
6 2012-13 2012-12-03 Syracuse Eastern Michigan REG W 1 22 5 6 .833 5 6 .833 0 0 4 4 1.000 1 4 5 0 2 0 3 3 14
7 2012-13 2012-12-06 Syracuse Long Beach State REG W 1 25 0 4 .000 0 4 .000 0 0 4 6 .667 1 8 9 0 0 3 3 4 4
8 2012-13 2012-12-08 Syracuse Monmouth REG W 1 25 4 9 .444 4 9 .444 0 0 3 7 .429 5 9 14 1 1 1 4 2 11
9 2012-13 2012-12-15 Syracuse Canisius REG W 1 16 3 5 .600 3 5 .600 0 0 1 5 .200 4 2 6 1 0 0 0 1 7
10 2012-13 2012-12-17 Syracuse Detroit Mercy REG W 1 17 2 6 .333 2 6 .333 0 0 0 0 2 2 4 0 1 1 1 0 4
11 2012-13 2012-12-22 Syracuse N Temple REG L 1 4 0 0 0 0 0 0 0 2 .000 0 1 1 0 0 0 0 0 0
12 2012-13 2012-12-29 Syracuse Alcorn State REG W 1 21 3 9 .333 3 9 .333 0 0 2 7 .286 4 2 6 0 1 0 0 0 8
13 2012-13 2012-12-31 Syracuse Central Connecticut State REG W 1 20 5 11 .455 5 11 .455 0 0 3 5 .600 4 5 9 0 1 2 2 1 13
14 2012-13 2013-01-02 Syracuse Rutgers REG W 1 9 1 3 .333 1 3 .333 0 0 1 2 .500 1 2 3 0 0 0 1 2 3
15 2012-13 2013-01-06 Syracuse @ South Florida REG W 0 5 0 1 .000 0 1 .000 0 0 0 0 0 0 0 0 0 0 0 0 0
16 2012-13 2013-01-09 Syracuse @ Providence REG W 1 2 0 0 0 0 0 0 0 0 0 0 0 0 0 0 0 1 0
17 2012-13 2013-01-12 Syracuse Villanova REG W 1 15 3 6 .500 3 6 .500 0 0 0 0 1 1 2 0 1 0 0 3 6
18 2012-13 2013-01-19 Syracuse @ Louisville REG W 1 10 1 2 .500 1 2 .500 0 0 1 2 .500 1 0 1 0 0 0 0 1 3
19 2012-13 2013-01-21 Syracuse Cincinnati REG W 1 7 0 0 0 0 0 0 0 0 0 0 0 0 0 0 0 0 0
20 2012-13 2013-01-26 Syracuse @ Villanova REG L 1 7 0 0 0 0 0 0 0 2 .000 0 0 0 0 0 0 0 1 0
21 2012-13 2013-03-02 Syracuse Louisville REG L 0 3 0 1 .000 0 1 .000 0 0 0 0 0 0 0 0 0 0 0 2 0
22 2012-13 2013-03-06 Syracuse DePaul REG W 0 4 1 1 1.000 1 1 1.000 0 0 0 1 .000 2 0 2 0 1 0 1 2 2
23 2012-13 2013-03-09 Syracuse @ Georgetown REG L 0 4 0 0 0 0 0 0 0 1 .000 0 0 0 0 0 0 0 0 0
24 2012-13 2013-03-21 Syracuse N Montana NCAA W 0 15 4 9 .444 4 9 .444 0 0 4 5 .800 3 3 6 1 1 0 0 0 12
Rk Season Date School Opponent Type GS MP FG FGA FG% 2P 2PA 2P% 3P 3PA 3P% FT FTA FT% ORB DRB TRB AST STL BLK TOV PF PTS
25 2013-14 2013-11-08 Syracuse Cornell REG W 1 11 1 2 .500 1 2 .500 0 0 0 2 .000 2 2 4 0 1 0 0 1 2
26 2013-14 2013-11-12 Syracuse Fordham REG W 1 19 3 6 .500 3 6 .500 0 0 4 8 .500 7 3 10 0 0 0 2 2 10
27 2013-14 2013-11-16 Syracuse Colgate REG W 1 15 0 1 .000 0 1 .000 0 0 0 3 .000 2 5 7 0 0 0 0 2 0
28 2013-14 2013-11-18 Syracuse St. Francis (NY) REG W 1 18 5 5 1.000 5 5 1.000 0 0 4 4 1.000 5 1 6 0 0 1 0 1 14
29 2013-14 2013-11-25 Syracuse N Minnesota REG W 1 16 3 4 .750 3 4 .750 0 0 3 6 .500 3 1 4 1 1 2 0 1 9
30 2013-14 2013-11-26 Syracuse N California REG W 1 12 0 0 0 0 0 0 0 0 0 1 1 1 0 1 0 1 0
31 2013-14 2013-11-27 Syracuse N Baylor REG W 1 10 0 2 .000 0 2 .000 0 0 0 0 1 1 2 0 1 0 1 1 0
32 2013-14 2013-12-03 Syracuse Indiana REG W 1 14 2 3 .667 2 3 .667 0 0 0 0 1 1 2 0 0 1 0 4 4
33 2013-14 2013-12-07 Syracuse Binghamton REG W 1 22 5 6 .833 5 6 .833 0 0 3 4 .750 6 4 10 1 1 0 3 3 13
34 2013-14 2013-12-15 Syracuse @ St. John's (NY) REG W 1 10 2 2 1.000 2 2 1.000 0 0 0 1 .000 1 3 4 0 0 0 3 3 4
35 2013-14 2013-12-20 Syracuse High Point REG W 1 13 0 4 .000 0 4 .000 0 0 0 0 1 0 1 0 0 1 1 3 0
36 2013-14 2013-12-28 Syracuse Villanova REG W 1 6 0 0 0 0 0 0 0 0 1 0 1 0 0 1 1 0 0
37 2013-14 2014-01-07 Syracuse @ Virginia Tech REG W 0 3 0 1 .000 0 1 .000 0 0 0 0 1 1 2 0 0 0 0 1 0
37 Games 31 474 63 132 .477 63 132 .477 0 0 44 93 .473 68 81 149 7 17 16 34 53 170